Home   Weather   Muskegon   Past weeks
Flag for USA

Past Weather in Muskegon, Michigan, USA — Yesterday and Last 2 Weeks

Now
52 °F

Partly cloudy.


Feels Like: 46 °F
Forecast: 54 / 46 °F
Wind: 24 mph from Southwest

Location: Muskegon County Airport

Current Time: Oct 22, 2019 at 7:51:28 am

Latest Report: Oct 22, 2019 at 6:55 am


Visibility: 10 mi

Pressure: 29.46 "Hg

Humidity: 66%

Dew Point: 41 °F

Location of MuskegonLocation

Past Weather in Muskegon — Graph

°F

Muskegon Temperature Yesterday

Maximum temperature yesterday: 62 °F (at 5:41 pm)
Minimum temperature yesterday: 44 °F (at 12:17 am)
Average temperature yesterday: 57 °F

High & Low Weather Summary for the Past Weeks

 TemperatureHumidityPressure
High75 °F (Oct 10, 2:55 pm)97% (Oct 20, 9:55 pm)30.29 "Hg (Oct 20, 9:55 pm)
Low32 °F (Oct 18, 6:55 am)37% (Oct 8, 2:55 pm)29.46 "Hg (Oct 21, 6:07 pm)
Average52 °F73%29.93 "Hg
* Reported Oct 7 5:55 am — Oct 22 5:55 am, Muskegon. Weather by CustomWeather, © 2019

Note: Actual official high and low records may vary slightly from our data, if they occured in-between our weather recording intervals... More about our weather records

Advertising

Muskegon Weather History for the Previous 24 Hours

Scroll right to see more
 ConditionsComfort  
Time TempWeatherWind HumidityBarometerVisibility
5:55 am
Tue, Oct 22
53 °FPassing clouds.23 mph64%29.47 "Hg10 mi
4:55 am53 °FPassing clouds.23 mph64%29.47 "Hg10 mi
3:55 am54 °FPassing clouds.20 mph62%29.50 "Hg10 mi
2:55 am54 °FPassing clouds.18 mph62%29.52 "Hg10 mi
1:55 am54 °FPassing clouds.21 mph59%29.53 "Hg10 mi
12:55 am54 °FClear.18 mph59%29.55 "Hg10 mi
11:55 pm
Mon, Oct 21
54 °FPassing clouds.18 mph59%29.56 "Hg10 mi
10:55 pm56 °FPassing clouds.15 mph65%29.55 "Hg10 mi
9:55 pm58 °FPartly cloudy.17 mph62%29.52 "Hg10 mi
8:55 pm60 °FPassing clouds.18 mph80%29.51 "Hg10 mi
7:55 pm62 °FOvercast.12 mph86%29.48 "Hg10 mi
7:17 pm62 °FPartly cloudy.9 mph86%29.47 "Hg10 mi
6:55 pm62 °FPartly cloudy.13 mph86%29.47 "Hg10 mi
6:07 pm62 °FLight rain. Broken clouds.13 mph83%29.46 "Hg10 mi
5:41 pm62 °FCloudy.14 mph86%29.47 "Hg10 mi
5:10 pm61 °FLight rain. Fog.14 mph87%29.48 "Hg6 mi
4:55 pm60 °FLight rain. Fog.14 mph90%29.48 "Hg6 mi
4:36 pm60 °FHeavy rain. Fog.13 mph90%29.49 "Hg2 mi
4:12 pm60 °FRain. Fog.18 mph90%29.48 "Hg2 mi
3:55 pm60 °FLight rain. Fog.16 mph86%29.49 "Hg3 mi
3:42 pm60 °FLight rain. Fog.21 mph86%29.49 "Hg6 mi
2:55 pm61 °FLight rain. Overcast.23 mph81%29.49 "Hg10 mi
1:55 pm60 °FMostly cloudy.25 mph83%29.51 "Hg10 mi
12:55 pm59 °FLight rain. Overcast.23 mph84%29.56 "Hg6 mi
11:55 am59 °FLight rain. Mostly cloudy.25 mph72%29.59 "Hg8 mi
10:55 am58 °FOvercast.18 mph67%29.68 "Hg10 mi
9:55 am57 °FMostly cloudy.16 mph64%29.73 "Hg10 mi
8:55 am55 °FOvercast.14 mph69%29.77 "Hg10 mi
7:55 am54 °FOvercast.15 mph74%29.78 "Hg10 mi
Weather by CustomWeather, © 2019

See weather overview